Location: Bagwu
(6.5672°N, 10.9939°W)
Time: 01:56:02
(UTC+00:00)

Daily predictions for brighter satellites

Satellite Brightness Start Highest point End
(mag) Time Altitude Azimuth Time Altitude Azimuth Time Altitude Azimuth
Atlas Centaur 2 4.0 03:49:49 33° NNE 03:49:49 33° NNE 03:54:54 10° NE
Cosmos 1844 Rocket 3.1 04:27:13 60° ENE 04:27:13 60° ENE 04:32:12 10° NNE
S3M 4.0 04:29:03 74° SE 04:29:25 77° E 04:35:46 10° N
CZ-2C R/B 3.8 04:30:24 10° N 04:32:35 28° N 04:32:35 28° N
ARIANE 5 R/B 4.5 04:36:24 46° S 04:37:30 49° SSE 05:15:22 10° E
ARIANE 5 R/B 4.5 04:36:23 46° S 04:37:30 49° SSE 05:15:21 10° E
Ariane H10+ 3.6 04:32:34 46° WSW 04:37:46 80° S 04:44:04 10° E
Ariane H10-3 4.4 04:38:25 49° S 04:38:27 49° S 04:54:58 10° E
Hubble Space Telescope 2.9 04:43:41 20° N 04:43:41 20° N 04:45:34 10° NNE
Meteor 2-21 Rocket 4.3 04:37:43 10° N 04:43:47 90° W 04:46:01 42° S
Cosmos 1484 Rocket 4.4 04:40:50 10° NE 04:44:06 30° E 04:44:17 30° ESE
Meteor 2-16 Rocket 4.5 04:41:04 10° N 04:47:12 78° E 04:53:20 10° S
Nadezhda 2 Rocket 4.3 04:47:45 10° NNW 04:53:48 64° W 04:54:33 59° SW
Cosmos 2058 Rocket 3.1 04:54:48 73° SE 04:55:06 77° E 04:59:35 10° N
ALOS 3.1 04:53:01 10° NNE 04:57:31 49° ESE 05:00:37 19° S
ERS-2 4.3 05:02:32 17° NNW 05:02:32 17° NNW 05:03:24 10° NNW
Cosmos 2315 Rocket 4.3 04:55:44 10° S 05:01:55 66° E 05:08:08 10° NNE
CZ-4B R/B 3.9 05:01:27 10° NNE 05:05:04 64° ESE 05:05:40 54° SSE
GPS 2-12 Rocket1 3.3 05:08:29 51° SSW 05:09:18 59° SSE 05:14:03 10° E
ARIANE 5 DEB (SYLDA) 3.6 05:15:38 36° S 05:16:03 37° S 05:21:17 10° ESE
H-2A R/B 4.0 05:19:27 14° NW 05:19:27 14° NW 05:20:10 10° NW
Cosmos 1758 Rocket 3.5 05:16:26 10° NNW 05:20:39 57° W 05:23:25 21° SSW
Cosmos 1844 4.1 05:20:51 34° WSW 05:22:33 42° WNW 05:28:00 10° N
Ariane H10+ 4.1 05:20:52 31° SW 05:23:46 48° S 05:31:37 10° ESE
Meteor 1-11 4.4 05:18:44 10° N 05:24:24 76° E 05:30:01 10° S
OAO 3 Copernicus 4.2 05:22:40 35° SW 05:24:46 87° SE 05:29:48 10° NE
CZ-4B R/B 1.8 05:21:58 10° SSE 05:25:22 63° ENE 05:28:40 10° N
CZ-3B R/B 3.3 05:11:21 10° WNW 05:26:56 78° NNE 05:31:32 10° ESE
H-2A R/B 3.8 05:28:02 10° NE 05:31:32 35° ESE 05:35:04 10° SSE
CZ-4B R/B 3.0 05:30:59 10° N 05:35:25 77° WNW 05:39:42 10° SSW
SWIFT 3.4 05:33:53 22° SSW 05:35:54 34° SSE 05:39:44 10° E
ARIANE 44LP R/B 0.9 05:36:20 51° W 05:36:45 85° N 05:38:55 10° E
ATLAS 2A CENTAUR R/B 3.9 05:36:37 10° NNW 05:39:52 25° NE 05:48:14 10° E
SAR-Lupe-4 3.4 05:38:03 10° S 05:41:36 66° W 05:45:07 10° NNW
Meteor 2-10 Rocket 3.8 05:37:04 10° S 05:42:01 67° E 05:47:02 10° NNE
Cosmos 1825 Rocket 4.0 05:39:15 10° NNW 05:43:10 36° W 05:47:08 10° SSW
FENGYUN 3A 4.0 05:38:41 10° N 05:43:43 43° WNW 05:48:46 10° SSW
Cosmos 2278 Rocket 2.9 05:42:54 10° S 05:48:27 58° ESE 05:53:59 10° NNE
Cosmos 1953 Rocket 3.7 05:45:04 10° NNW 05:49:23 52° W 05:53:42 10° S
Cosmos 1455 2.4 05:46:59 10° S 05:50:47 73° E 05:54:35 10° N
Okean O Rocket 4.3 05:47:57 10° NE 05:51:16 21° E 05:54:35 10° SSE
Meteor PRIRODA 4.2 05:55:18 10° N 05:58:46 39° WNW 06:02:16 10° SSW
Meteor 2-1 Rocket 4.4 06:00:45 10° SSW 06:06:17 54° W 06:11:55 10° N
Cosmos 1400 Rocket 2.9 06:09:47 10° SSW 06:13:45 58° W 06:17:37 10° N
Cosmos 1689 Rocket 2.3 06:11:14 10° S 06:14:02 44° W 06:16:50 10° NNW
Cosmos-2242 3.4 06:10:33 10° S 06:14:49 68° E 06:19:07 10° N
ASC 2 Rocket 3.7 06:13:22 10° W 06:17:23 41° SSW 06:22:29 10° SE
Chandra Rocket (1) 3.8 06:10:28 10° W 06:18:03 28° NW 06:21:20 10° NNE
MOS 1-B 4.4 06:17:21 10° N 06:23:05 70° WNW 06:28:49 10° SSW
